| time (UTC) | temp F | wind direction | speed knots | gust knots | rain 1hr in | rain 24hr in | rain mn in | humidity % | barometer mb |
| 20260506051052 | 75 | 153 | 4.3 | 7.8 | 0.00 | 0.00 | 0.00 | 91 | 1009.2 |
| 20260506050551 | 75 | 162 | 5.2 | 7.8 | 0.00 | 0.00 | 0.00 | 91 | 1009.2 |
| 20260506050107 | 75 | 163 | 5.2 | 7.8 | 0.00 | 0.00 | 0.00 | 91 | 1009.2 |
| 20260506045051 | 76 | 151 | 7.0 | 10.4 | 0.00 | 0.00 | 0.00 | 90 | 1009.1 |
| 20260506044554 | 76 | 155 | 7.0 | 10.4 | 0.00 | 0.00 | 0.00 | 90 | 1009.2 |
| 20260506044051 | 76 | 166 | 6.1 | 10.4 | 0.00 | 0.00 | 0.00 | 90 | 1009.2 |
| 20260506043554 | 76 | 167 | 7.0 | 10.4 | 0.00 | 0.00 | 0.00 | 90 | 1009.2 |
| 20260506043053 | 76 | 155 | 7.0 | 11.3 | 0.00 | 0.00 | 0.00 | 90 | 1009.1 |
| 20260506042554 | 76 | 157 | 8.7 | 12.2 | 0.00 | 0.00 | 0.00 | 90 | 1009.0 |
| 20260506042054 | 76 | 146 | 7.0 | 12.2 | 0.00 | 0.00 | 0.00 | 90 | 1008.9 |
| 20260506041600 | 76 | 204 | 7.8 | 12.2 | 0.00 | 0.00 | 0.00 | 90 | 1008.9 |
| 20260506041050 | 76 | 154 | 7.8 | 12.2 | 0.00 | 0.00 | 0.00 | 90 | 1008.9 |
| 20260506040551 | 76 | 175 | 8.7 | 12.2 | 0.00 | 0.00 | 0.00 | 90 | 1008.8 |
| 20260506040055 | 76 | 153 | 7.8 | 12.2 | 0.00 | 0.00 | 0.00 | 90 | 1008.8 |
| 20260506035555 | 76 | 161 | 6.1 | 10.4 | 0.00 | 0.00 | 0.00 | 90 | 1008.8 |
| 20260506035053 | 76 | 163 | 7.0 | 11.3 | 0.00 | 0.00 | 0.00 | 90 | 1008.8 |
| 20260506034610 | 76 | 152 | 7.0 | 11.3 | 0.00 | 0.00 | 0.00 | 90 | 1008.8 |
| 20260506034056 | 76 | 160 | 7.8 | 11.3 | 0.00 | 0.00 | 0.00 | 89 | 1008.7 |
| 20260506033551 | 76 | 146 | 7.0 | 9.6 | 0.00 | 0.00 | 0.00 | 89 | 1008.8 |
| 20260506033054 | 76 | 156 | 7.0 | 9.6 | 0.00 | 0.00 | 0.00 | 89 | 1008.8 |
| 20260506032554 | 76 | 160 | 5.2 | 9.6 | 0.00 | 0.00 | 0.00 | 89 | 1008.7 |
| 20260506032053 | 76 | 147 | 7.0 | 9.6 | 0.00 | 0.00 | 0.00 | 89 | 1008.7 |
| 20260506031556 | 76 | 162 | 6.1 | 9.6 | 0.00 | 0.00 | 0.00 | 89 | 1008.7 |
| 20260506031054 | 76 | 154 | 4.3 | 6.1 | 0.00 | 0.00 | 0.00 | 89 | 1008.7 |
| 20260506030550 | 76 | 154 | 3.5 | 6.1 | 0.00 | 0.00 | 0.00 | 89 | 1008.6 |
| 20260506030056 | 76 | 151 | 4.3 | 7.8 | 0.00 | 0.00 | 0.00 | 89 | 1008.4 |
| 20260506025555 | 76 | 168 | 5.2 | 7.8 | 0.00 | 0.00 | 0.00 | 89 | 1008.3 |
| 20260506025056 | 76 | 158 | 5.2 | 7.0 | 0.00 | 0.00 | 0.00 | 89 | 1008.2 |
| 20260506024612 | 76 | 136 | 4.3 | 6.1 | 0.00 | 0.00 | 0.00 | 89 | 1008.2 |
| 20260506024051 | 77 | 165 | 4.3 | 6.1 | 0.00 | 0.00 | 0.00 | 89 | 1008.1 |
| 20260506023550 | 76 | 136 | 2.6 | 7.0 | 0.00 | 0.00 | 0.00 | 89 | 1008.1 |
| 20260506023055 | 76 | 126 | 3.5 | 7.0 | 0.00 | 0.00 | 0.00 | 89 | 1008.0 |
| 20260506022554 | 76 | 148 | 4.3 | 7.0 | 0.00 | 0.00 | 0.00 | 89 | 1007.8 |
| 20260506022051 | 76 | 150 | 2.6 | 5.2 | 0.00 | 0.00 | 0.00 | 89 | 1007.8 |
| 20260506021554 | 76 | 183 | 2.6 | 5.2 | 0.00 | 0.00 | 0.00 | 89 | 1007.8 |
| 20260506021054 | 76 | 149 | 2.6 | 5.2 | 0.00 | 0.00 | 0.00 | 89 | 1007.7 |
| 20260506020555 | 77 | 154 | 3.5 | 6.1 | 0.00 | 0.00 | 0.00 | 88 | 1007.6 |
| 20260506020051 | 77 | 160 | 3.5 | 6.1 | 0.00 | 0.00 | 0.00 | 88 | 1007.7 |
| 20260506015554 | 77 | 150 | 4.3 | 7.8 | 0.00 | 0.00 | 0.00 | 88 | 1007.6 |
| 20260506015054 | 77 | 153 | 4.3 | 7.8 | 0.00 | 0.00 | 0.00 | 87 | 1007.6 |
| 20260506014553 | 77 | 155 | 5.2 | 11.3 | 0.00 | 0.00 | 0.00 | 87 | 1007.5 |
| 20260506014057 | 77 | 146 | 5.2 | 11.3 | 0.00 | 0.00 | 0.00 | 87 | 1007.3 |
| 20260506013555 | 77 | 163 | 7.0 | 10.4 | 0.00 | 0.00 | 0.00 | 87 | 1007.2 |
| 20260506013107 | 77 | 142 | 7.0 | 10.4 | 0.00 | 0.00 | 0.00 | 86 | 1007.2 |
| 20260506012558 | 77 | 148 | 6.1 | 10.4 | 0.00 | 0.00 | 0.00 | 86 | 1007.0 |
| 20260506012053 | 77 | 154 | 7.0 | 11.3 | 0.00 | 0.00 | 0.00 | 86 | 1007.0 |
| 20260506011606 | 78 | 148 | 7.8 | 11.3 | 0.00 | 0.00 | 0.00 | 85 | 1006.9 |
| 20260506011053 | 78 | 163 | 7.8 | 11.3 | 0.00 | 0.00 | 0.00 | 85 | 1006.8 |
| 20260506010554 | 78 | 150 | 8.7 | 11.3 | 0.00 | 0.00 | 0.00 | 85 | 1006.8 |
| 20260506010056 | 78 | 158 | 7.8 | 10.4 | 0.00 | 0.00 | 0.00 | 84 | 1006.8 |
| 20260506005554 | 78 | 148 | 7.8 | 11.3 | 0.00 | 0.00 | 0.00 | 84 | 1006.7 |
| 20260506005055 | 79 | 157 | 7.8 | 12.2 | 0.00 | 0.00 | 0.00 | 84 | 1006.8 |
| 20260506004555 | 79 | 141 | 7.0 | 12.2 | 0.00 | 0.00 | 0.00 | 83 | 1006.8 |
| 20260506004053 | 79 | 159 | 9.6 | 13.0 | 0.00 | 0.00 | 0.00 | 83 | 1006.7 |
| 20260506003552 | 79 | 144 | 8.7 | 13.0 | 0.00 | 0.00 | 0.00 | 82 | 1006.5 |
| 20260506003055 | 79 | 153 | 8.7 | 12.2 | 0.00 | 0.00 | 0.00 | 82 | 1006.6 |
| 20260506002554 | 79 | 133 | 9.6 | 12.2 | 0.00 | 0.00 | 0.00 | 82 | 1006.6 |
| 20260506002054 | 79 | 150 | 7.8 | 11.3 | 0.00 | 0.00 | 0.00 | 82 | 1006.5 |
| 20260506001554 | 79 | 143 | 7.0 | 13.0 | 0.00 | 0.00 | 0.00 | 82 | 1006.5 |
| 20260506001054 | 79 | 155 | 7.0 | 13.0 | 0.00 | 0.00 | 0.00 | 82 | 1006.6 |
| 20260506000554 | 79 | 146 | 8.7 | 15.6 | 0.00 | 0.00 | 0.00 | 82 | 1006.5 |
| 20260506000055 | 80 | 155 | 9.6 | 15.6 | 0.00 | 0.00 | 0.00 | 82 | 1006.5 |
| 20260505235554 | 80 | 146 | 10.4 | 15.6 | 0.00 | 0.00 | 0.00 | 82 | 1006.5 |
| 20260505235054 | 80 | 148 | 9.6 | 12.2 | 0.00 | 0.00 | 0.00 | 82 | 1006.5 |
| 20260505234557 | 80 | 138 | 7.8 | 13.9 | 0.00 | 0.00 | 0.00 | 81 | 1006.4 |
| 20260505234051 | 80 | 166 | 9.6 | 14.8 | 0.00 | 0.00 | 0.00 | 81 | 1006.4 |
| 20260505233554 | 81 | 139 | 9.6 | 14.8 | 0.00 | 0.00 | 0.00 | 80 | 1006.3 |
| 20260505233053 | 81 | 139 | 9.6 | 14.8 | 0.00 | 0.00 | 0.00 | 80 | 1006.3 |
| 20260505232554 | 81 | 145 | 8.7 | 12.2 | 0.00 | 0.00 | 0.00 | 80 | 1006.4 |
| 20260505232058 | 81 | 146 | 8.7 | 12.2 | 0.00 | 0.00 | 0.00 | 80 | 1006.4 |
| 20260505231633 | 82 | 140 | 9.6 | 12.2 | 0.00 | 0.00 | 0.00 | 79 | 1006.3 |
| 20260505231058 | 82 | 146 | 9.6 | 12.2 | 0.00 | 0.00 | 0.00 | 78 | 1006.1 |
| 20260505230556 | 82 | 213 | 7.8 | 12.2 | 0.00 | 0.00 | 0.00 | 77 | 1006.1 |
| 20260505230106 | 82 | 158 | 7.0 | 15.6 | 0.00 | 0.00 | 0.00 | 77 | 1006.2 |
| 20260505225556 | 83 | 165 | 10.4 | 15.6 | 0.00 | 0.00 | 0.00 | 77 | 1006.2 |
| 20260505225056 | 83 | 159 | 9.6 | 13.9 | 0.00 | 0.00 | 0.00 | 77 | 1006.2 |
| 20260505224556 | 83 | 145 | 9.6 | 13.9 | 0.00 | 0.00 | 0.00 | 76 | 1006.1 |
| 20260505224055 | 82 | 156 | 7.8 | 15.6 | 0.00 | 0.00 | 0.00 | 76 | 1006.1 |
| 20260505223555 | 82 | 129 | 8.7 | 15.6 | 0.00 | 0.00 | 0.00 | 77 | 1006.2 |
| 20260505223110 | 82 | 165 | 10.4 | 16.5 | 0.00 | 0.00 | 0.00 | 76 | 1006.1 |
| 20260505222555 | 83 | 147 | 9.6 | 16.5 | 0.00 | 0.00 | 0.00 | 77 | 1006.3 |
| 20260505222055 | 82 | 161 | 12.2 | 16.5 | 0.00 | 0.00 | 0.00 | 77 | 1006.2 |
| 20260505221557 | 83 | 146 | 10.4 | 15.6 | 0.00 | 0.00 | 0.00 | 77 | 1006.2 |
| 20260505221058 | 83 | 154 | 10.4 | 17.4 | 0.00 | 0.00 | 0.00 | 76 | 1006.2 |
| 20260505220600 | 83 | 162 | 10.4 | 17.4 | 0.00 | 0.00 | 0.00 | 76 | 1006.3 |
| 20260505220056 | 83 | 165 | 11.3 | 16.5 | 0.00 | 0.00 | 0.00 | 77 | 1006.2 |
| 20260505215556 | 83 | 160 | 12.2 | 16.5 | 0.00 | 0.00 | 0.00 | 76 | 1006.2 |
| 20260505215056 | 83 | 176 | 11.3 | 16.5 | 0.00 | 0.00 | 0.00 | 76 | 1006.4 |
| 20260505214557 | 83 | 155 | 9.6 | 16.5 | 0.00 | 0.00 | 0.00 | 78 | 1006.5 |
| 20260505214055 | 83 | 143 | 11.3 | 16.5 | 0.00 | 0.00 | 0.00 | 79 | 1006.4 |
| 20260505213600 | 83 | 150 | 11.3 | 19.1 | 0.00 | 0.00 | 0.00 | 77 | 1006.5 |
| 20260505213102 | 83 | 149 | 13.0 | 19.1 | 0.00 | 0.00 | 0.00 | 76 | 1006.6 |
| 20260505212555 | 83 | 142 | 12.2 | 16.5 | 0.00 | 0.00 | 0.00 | 76 | 1006.7 |
| 20260505212056 | 83 | 146 | 12.2 | 16.5 | 0.00 | 0.00 | 0.00 | 76 | 1006.9 |
| 20260505211555 | 83 | 153 | 12.2 | 16.5 | 0.00 | 0.00 | 0.00 | 77 | 1007.0 |
| 20260505211057 | 84 | 147 | 9.6 | 13.9 | 0.00 | 0.00 | 0.00 | 76 | 1006.9 |
| 20260505210556 | 84 | 155 | 10.4 | 13.9 | 0.00 | 0.00 | 0.00 | 73 | 1007.1 |
| 20260505210056 | 84 | 153 | 9.6 | 15.6 | 0.00 | 0.00 | 0.00 | 74 | 1007.2 |
| 20260505205555 | 84 | 179 | 11.3 | 15.6 | 0.00 | 0.00 | 0.00 | 74 | 1007.3 |
| 20260505205056 | 84 | 149 | 10.4 | 13.9 | 0.00 | 0.00 | 0.00 | 75 | 1007.3 |
| 20260505204601 | 84 | 168 | 9.6 | 13.9 | 0.00 | 0.00 | 0.00 | 75 | 1007.4 |
| 20260505204056 | 84 | 193 | 7.8 | 14.8 | 0.00 | 0.00 | 0.00 | 75 | 1007.6 |
| 20260505203555 | 84 | 156 | 10.4 | 14.8 | 0.00 | 0.00 | 0.00 | 75 | 1007.7 |
| 20260505203116 | 83 | 169 | 9.6 | 13.0 | 0.00 | 0.00 | 0.00 | 75 | 1007.9 |
| 20260505202557 | 84 | 168 | 9.6 | 13.9 | 0.00 | 0.00 | 0.00 | 74 | 1007.9 |
| 20260505202056 | 84 | 148 | 9.6 | 13.9 | 0.00 | 0.00 | 0.00 | 76 | 1007.9 |
| 20260505201557 | 84 | 162 | 9.6 | 13.0 | 0.00 | 0.00 | 0.00 | 74 | 1008.0 |
| 20260505201056 | 83 | 172 | 7.8 | 13.9 | 0.00 | 0.00 | 0.00 | 76 | 1008.1 |
| 20260505200558 | 83 | 172 | 8.7 | 13.9 | 0.00 | 0.00 | 0.00 | 75 | 1008.1 |
| 20260505200054 | 83 | 190 | 9.6 | 13.9 | 0.00 | 0.00 | 0.00 | 77 | 1008.2 |
| 20260505195558 | 83 | 171 | 7.8 | 13.0 | 0.00 | 0.00 | 0.00 | 76 | 1008.2 |
| 20260505195055 | 83 | 160 | 8.7 | 13.0 | 0.00 | 0.00 | 0.00 | 76 | 1008.3 |
| 20260505194610 | 83 | 167 | 8.7 | 14.8 | 0.00 | 0.00 | 0.00 | 76 | 1008.4 |
| 20260505194059 | 84 | 195 | 10.4 | 14.8 | 0.00 | 0.00 | 0.00 | 74 | 1008.4 |
| 20260505193556 | 83 | 176 | 9.6 | 13.9 | 0.00 | 0.00 | 0.00 | 75 | 1008.3 |
| 20260505193056 | 83 | 190 | 8.7 | 13.9 | 0.00 | 0.00 | 0.00 | 76 | 1008.6 |
| 20260505192559 | 82 | 198 | 8.7 | 13.0 | 0.00 | 0.00 | 0.00 | 76 | 1008.6 |
| 20260505192056 | 82 | 199 | 7.8 | 12.2 | 0.00 | 0.00 | 0.00 | 79 | 1008.8 |
| 20260505191554 | 82 | 211 | 8.7 | 11.3 | 0.00 | 0.00 | 0.00 | 79 | 1008.7 |
| 20260505191057 | 81 | 191 | 7.8 | 10.4 | 0.00 | 0.00 | 0.00 | 79 | 1008.8 |
| 20260505190559 | 81 | 175 | 7.8 | 10.4 | 0.00 | 0.00 | 0.00 | 80 | 1008.8 |
| 20260505190054 | 81 | 191 | 7.0 | 10.4 | 0.00 | 0.00 | 0.00 | 78 | 1008.9 |
| 20260505185559 | 81 | 214 | 6.1 | 12.2 | 0.00 | 0.00 | 0.00 | 81 | 1008.9 |
| 20260505185056 | 80 | 191 | 6.1 | 12.2 | 0.00 | 0.00 | 0.00 | 82 | 1008.9 |
| 20260505184556 | 80 | 157 | 7.8 | 12.2 | 0.00 | 0.00 | 0.00 | 81 | 1009.0 |
| 20260505184056 | 81 | 191 | 7.8 | 12.2 | 0.00 | 0.00 | 0.00 | 79 | 1009.0 |
| 20260505183557 | 81 | 162 | 8.7 | 12.2 | 0.00 | 0.00 | 0.00 | 80 | 1009.0 |
| 20260505183101 | 81 | 181 | 7.8 | 13.0 | 0.00 | 0.00 | 0.00 | 79 | 1009.0 |
| 20260505182556 | 81 | 157 | 7.8 | 13.0 | 0.00 | 0.00 | 0.00 | 80 | 1009.0 |
| 20260505182056 | 80 | 200 | 8.7 | 13.9 | 0.00 | 0.00 | 0.00 | 80 | 1009.1 |
| 20260505181554 | 80 | 210 | 8.7 | 13.9 | 0.00 | 0.00 | 0.00 | 81 | 1009.1 |
| 20260505181056 | 80 | 203 | 8.7 | 13.9 | 0.00 | 0.00 | 0.00 | 81 | 1009.2 |
| 20260505180556 | 79 | 193 | 8.7 | 13.9 | 0.00 | 0.00 | 0.00 | 81 | 1009.2 |
| 20260505175556 | 79 | 210 | 8.7 | 13.9 | 0.00 | 0.00 | 0.00 | 82 | 1009.2 |
| 20260505175057 | 79 | 184 | 8.7 | 13.9 | 0.00 | 0.00 | 0.00 | 83 | 1009.3 |
| 20260505174558 | 79 | 233 | 10.4 | 13.9 | 0.00 | 0.00 | 0.00 | 82 | 1009.4 |
| 20260505174056 | 79 | 203 | 8.7 | 14.8 | 0.00 | 0.00 | 0.00 | 82 | 1009.4 |
| 20260505173559 | 78 | 221 | 10.4 | 14.8 | 0.00 | 0.00 | 0.00 | 82 | 1009.4 |
| 20260505173056 | 79 | 195 | 8.7 | 14.8 | 0.00 | 0.00 | 0.00 | 82 | 1009.5 |
| 20260505172554 | 79 | 198 | 7.8 | 14.8 | 0.00 | 0.00 | 0.00 | 84 | 1009.5 |
| 20260505172055 | 78 | 232 | 10.4 | 14.8 | 0.00 | 0.00 | 0.00 | 82 | 1009.5 |
| 20260505171556 | 78 | 207 | 10.4 | 15.6 | 0.00 | 0.00 | 0.00 | 81 | 1009.5 |
| 20260505171058 | 78 | 208 | 10.4 | 16.5 | 0.00 | 0.00 | 0.00 | 81 | 1009.5 |
| 20260505170557 | 79 | 205 | 11.3 | 16.5 | 0.00 | 0.00 | 0.00 | 81 | 1009.5 |
| 20260505170055 | 79 | 204 | 11.3 | 16.5 | 0.00 | 0.00 | 0.00 | 81 | 1009.6 |
| 20260505165556 | 79 | 207 | 8.7 | 14.8 | 0.00 | 0.00 | 0.00 | 83 | 1009.6 |
| 20260505165115 | 79 | 226 | 7.8 | 15.6 | 0.00 | 0.00 | 0.00 | 81 | 1009.6 |
| 20260505164600 | 78 | 206 | 11.3 | 15.6 | 0.00 | 0.00 | 0.00 | 83 | 1009.6 |
| 20260505164054 | 78 | 202 | 9.6 | 14.8 | 0.00 | 0.00 | 0.00 | 84 | 1009.6 |
| 20260505163555 | 77 | 221 | 7.8 | 13.9 | 0.00 | 0.00 | 0.00 | 84 | 1009.7 |
| 20260505163056 | 77 | 205 | 10.4 | 13.9 | 0.00 | 0.00 | 0.00 | 85 | 1009.7 |
| 20260505162554 | 77 | 205 | 9.6 | 13.9 | 0.00 | 0.00 | 0.00 | 84 | 1009.7 |
| 20260505162054 | 77 | 226 | 7.8 | 16.5 | 0.00 | 0.00 | 0.00 | 85 | 1009.7 |
| 20260505161554 | 77 | 217 | 11.3 | 16.5 | 0.00 | 0.00 | 0.00 | 85 | 1009.7 |
| 20260505161051 | 77 | 222 | 11.3 | 14.8 | 0.00 | 0.00 | 0.00 | 84 | 1009.6 |
| 20260505160555 | 77 | 223 | 9.6 | 13.9 | 0.00 | 0.00 | 0.00 | 85 | 1009.7 |
| 20260505153109 | 76 | 150 | 7.8 | 12.2 | 0.00 | 0.00 | 0.00 | 89 | 1009.6 |
| 20260505152553 | 75 | 209 | 8.7 | 12.2 | 0.00 | 0.00 | 0.00 | 89 | 1009.6 |
| 20260505152054 | 75 | 204 | 8.7 | 13.9 | 0.00 | 0.00 | 0.00 | 90 | 1009.5 |
| 20260505151557 | 75 | 204 | 7.8 | 13.9 | 0.00 | 0.00 | 0.00 | 91 | 1009.6 |
| 20260505151053 | 74 | 200 | 8.7 | 13.9 | 0.00 | 0.00 | 0.00 | 91 | 1009.6 |
| 20260505150554 | 74 | 194 | 8.7 | 11.3 | 0.00 | 0.00 | 0.00 | 91 | 1009.6 |
| 20260505140554 | 72 | 199 | 7.0 | 11.3 | 0.00 | 0.00 | 0.00 | 94 | 1009.4 |
| 20260505140105 | 72 | 233 | 7.0 | 12.2 | 0.00 | 0.00 | 0.00 | 94 | 1009.3 |
| 20260505130110 | 71 | 202 | 7.0 | 10.4 | 0.00 | 0.00 | 0.00 | 94 | 1009.0 |
| 20260505124608 | 71 | 146 | 7.0 | 9.6 | 0.00 | 0.00 | 0.00 | 95 | 1008.8 |
| 20260505124055 | 70 | 186 | 6.1 | 9.6 | 0.00 | 0.00 | 0.00 | 95 | 1008.8 |
| 20260505123556 | 70 | 213 | 6.1 | 8.7 | 0.00 | 0.00 | 0.00 | 95 | 1008.8 |
| 20260505123117 | 70 | 215 | 6.1 | 9.6 | 0.00 | 0.00 | 0.00 | 95 | 1008.8 |
| 20260505122559 | 70 | 203 | 6.1 | 9.6 | 0.00 | 0.00 | 0.00 | 95 | 1008.7 |
| 20260505122055 | 70 | 163 | 7.0 | 9.6 | 0.00 | 0.00 | 0.00 | 95 | 1008.6 |
| 20260505121556 | 70 | 167 | 6.1 | 8.7 | 0.00 | 0.00 | 0.00 | 95 | 1008.6 |
| 20260505121055 | 70 | 181 | 6.1 | 7.8 | 0.00 | 0.00 | 0.00 | 95 | 1008.7 |
| 20260505120556 | 70 | 184 | 5.2 | 7.8 | 0.00 | 0.00 | 0.00 | 95 | 1008.6 |
| 20260505120100 | 70 | 173 | 6.1 | 7.8 | 0.00 | 0.00 | 0.00 | 95 | 1008.5 |
| 20260505115558 | 69 | 196 | 4.3 | 7.0 | 0.00 | 0.00 | 0.00 | 95 | 1008.4 |
| 20260505115056 | 69 | 190 | 5.2 | 7.0 | 0.00 | 0.00 | 0.00 | 95 | 1008.3 |
| 20260505114558 | 69 | 160 | 5.2 | 9.6 | 0.00 | 0.00 | 0.00 | 95 | 1008.3 |
| 20260505114059 | 69 | 213 | 5.2 | 10.4 | 0.00 | 0.00 | 0.00 | 95 | 1008.3 |
| 20260505113558 | 69 | 191 | 7.0 | 10.4 | 0.00 | 0.00 | 0.00 | 95 | 1008.3 |
| 20260505113101 | 69 | 193 | 6.1 | 10.4 | 0.00 | 0.00 | 0.00 | 95 | 1008.2 |
| 20260505112556 | 69 | 193 | 7.0 | 10.4 | 0.00 | 0.00 | 0.00 | 95 | 1008.1 |
| 20260505112056 | 69 | 172 | 6.1 | 9.6 | 0.00 | 0.00 | 0.00 | 95 | 1008.1 |
| 20260505111558 | 69 | 203 | 7.0 | 10.4 | 0.00 | 0.00 | 0.00 | 95 | 1008.1 |
| 20260505111058 | 69 | 196 | 6.1 | 10.4 | 0.00 | 0.00 | 0.00 | 95 | 1008.1 |
| 20260505110555 | 69 | 158 | 7.0 | 8.7 | 0.00 | 0.00 | 0.00 | 95 | 1008.1 |
| 20260505110105 | 69 | 187 | 6.1 | 8.7 | 0.00 | 0.00 | 0.00 | 95 | 1008.1 |
| 20260505102058 | 68 | 190 | 6.1 | 7.8 | 0.00 | 0.00 | 0.00 | 95 | 1008.2 |
| 20260505101603 | 68 | 199 | 6.1 | 7.8 | 0.00 | 0.00 | 0.00 | 95 | 1008.2 |
| 20260505101055 | 68 | 187 | 5.2 | 7.8 | 0.00 | 0.00 | 0.00 | 95 | 1008.1 |
| 20260505100555 | 68 | 167 | 5.2 | 7.8 | 0.00 | 0.00 | 0.00 | 95 | 1008.2 |
| 20260505100057 | 68 | 143 | 6.1 | 8.7 | 0.00 | 0.00 | 0.00 | 95 | 1008.3 |
| 20260505095559 | 68 | 192 | 6.1 | 8.7 | 0.00 | 0.00 | 0.00 | 95 | 1008.5 |
| 20260505095054 | 68 | 204 | 6.1 | 8.7 | 0.00 | 0.00 | 0.00 | 95 | 1008.5 |
| 20260505094558 | 68 | 195 | 5.2 | 8.7 | 0.00 | 0.00 | 0.00 | 95 | 1008.3 |
| 20260505094054 | 68 | 181 | 6.1 | 9.6 | 0.00 | 0.00 | 0.00 | 95 | 1008.3 |
| 20260505093554 | 68 | 163 | 5.2 | 9.6 | 0.00 | 0.00 | 0.00 | 94 | 1008.3 |
| 20260505093058 | 68 | 178 | 6.1 | 9.6 | 0.00 | 0.00 | 0.00 | 94 | 1008.3 |
| 20260505092555 | 68 | 170 | 5.2 | 8.7 | 0.00 | 0.00 | 0.00 | 94 | 1008.4 |
| 20260505092056 | 68 | 180 | 6.1 | 8.7 | 0.00 | 0.00 | 0.00 | 94 | 1008.2 |
| 20260505091559 | 68 | 199 | 5.2 | 8.7 | 0.00 | 0.00 | 0.00 | 94 | 1008.6 |
| 20260505091054 | 68 | 198 | 5.2 | 8.7 | 0.00 | 0.00 | 0.00 | 94 | 1008.7 |
| 20260505090554 | 68 | 191 | 6.1 | 8.7 | 0.00 | 0.00 | 0.00 | 94 | 1008.7 |
| 20260505090059 | 68 | 186 | 6.1 | 8.7 | 0.00 | 0.00 | 0.00 | 94 | 1008.7 |
| 20260505085554 | 68 | 197 | 6.1 | 8.7 | 0.00 | 0.00 | 0.00 | 94 | 1008.6 |
| 20260505085057 | 68 | 184 | 6.1 | 8.7 | 0.00 | 0.00 | 0.00 | 94 | 1008.6 |
| 20260505084557 | 68 | 179 | 6.1 | 9.6 | 0.00 | 0.00 | 0.00 | 94 | 1008.6 |
| 20260505084055 | 68 | 200 | 6.1 | 9.6 | 0.00 | 0.00 | 0.00 | 94 | 1008.6 |
| 20260505083555 | 68 | 188 | 7.0 | 10.4 | 0.00 | 0.00 | 0.00 | 94 | 1008.9 |
| 20260505083055 | 68 | 196 | 7.8 | 10.4 | 0.00 | 0.00 | 0.00 | 94 | 1008.9 |
| 20260505082555 | 68 | 201 | 7.0 | 10.4 | 0.00 | 0.00 | 0.00 | 94 | 1009.0 |
| 20260505082056 | 68 | 199 | 7.8 | 10.4 | 0.00 | 0.00 | 0.00 | 93 | 1009.0 |
| 20260505081601 | 68 | 199 | 7.0 | 10.4 | 0.00 | 0.00 | 0.00 | 93 | 1009.1 |
| 20260505081055 | 69 | 214 | 7.0 | 10.4 | 0.00 | 0.00 | 0.00 | 93 | 1009.2 |
| 20260505080551 | 69 | 202 | 7.8 | 11.3 | 0.00 | 0.00 | 0.00 | 93 | 1009.2 |
| 20260505080058 | 69 | 200 | 7.0 | 12.2 | 0.00 | 0.00 | 0.00 | 93 | 1009.3 |
| 20260505075558 | 69 | 195 | 8.7 | 12.2 | 0.00 | 0.00 | 0.00 | 93 | 1009.3 |
| 20260505075054 | 69 | 197 | 7.8 | 11.3 | 0.00 | 0.00 | 0.00 | 93 | 1009.4 |
| 20260505074608 | 69 | 201 | 7.8 | 11.3 | 0.00 | 0.00 | 0.00 | 93 | 1009.4 |
| 20260505074054 | 69 | 189 | 7.0 | 11.3 | 0.00 | 0.00 | 0.00 | 93 | 1009.4 |
| 20260505073554 | 69 | 193 | 7.8 | 11.3 | 0.00 | 0.00 | 0.00 | 92 | 1009.5 |
| 20260505073056 | 69 | 189 | 8.7 | 11.3 | 0.00 | 0.00 | 0.00 | 93 | 1009.4 |
| 20260505072648 | 69 | 205 | 6.1 | 11.3 | 0.00 | 0.00 | 0.00 | 92 | 1009.6 |
| 20260505072054 | 69 | 179 | 6.1 | 9.6 | 0.00 | 0.00 | 0.00 | 92 | 1009.6 |
| 20260505071557 | 69 | 203 | 7.0 | 9.6 | 0.00 | 0.00 | 0.00 | 92 | 1009.7 |
| 20260505071054 | 69 | 192 | 7.0 | 10.4 | 0.00 | 0.00 | 0.00 | 92 | 1009.7 |
| 20260505070556 | 69 | 195 | 6.1 | 10.4 | 0.00 | 0.00 | 0.00 | 92 | 1009.9 |
| 20260505070055 | 69 | 198 | 6.1 | 10.4 | 0.00 | 0.00 | 0.00 | 92 | 1009.9 |
| 20260505065555 | 69 | 184 | 7.0 | 11.3 | 0.00 | 0.00 | 0.00 | 92 | 1009.8 |
| 20260505065053 | 69 | 207 | 7.0 | 11.3 | 0.00 | 0.00 | 0.00 | 91 | 1009.8 |
| 20260505064553 | 69 | 199 | 7.8 | 13.0 | 0.00 | 0.00 | 0.00 | 91 | 1009.7 |
| 20260505064056 | 69 | 193 | 8.7 | 13.9 | 0.00 | 0.00 | 0.00 | 91 | 1009.7 |
| 20260505063554 | 69 | 176 | 8.7 | 14.8 | 0.00 | 0.00 | 0.00 | 91 | 1009.7 |
| 20260505063058 | 69 | 183 | 10.4 | 14.8 | 0.00 | 0.00 | 0.00 | 91 | 1009.7 |
| 20260505062554 | 69 | 191 | 9.6 | 14.8 | 0.00 | 0.00 | 0.00 | 91 | 1009.8 |
| 20260505062053 | 69 | 157 | 8.7 | 13.9 | 0.00 | 0.00 | 0.00 | 91 | 1009.8 |
| 20260505061619 | 69 | 165 | 8.7 | 13.9 | 0.00 | 0.00 | 0.00 | 91 | 1010.0 |
| 20260505061054 | 69 | 160 | 9.6 | 13.9 | 0.00 | 0.00 | 0.00 | 91 | 1009.8 |
| 20260505060556 | 69 | 176 | 7.8 | 13.0 | 0.00 | 0.00 | 0.00 | 90 | 1009.9 |